Location: *
(46.4000°N, 12.6667°E)
Time: 15:47:53
(UTC+00:00)

SL-16 R/B - Pass Details

Date: 09 April 2020
Orbit: 985 x 1007 km, 99.5° (Epoch: 29 May)

Event Time Altitude Azimuth Distance (km) Brightness Sun altitude
Exits shadow 23:48:39 36° 74° (ENE) 1,547 3.6 -34.9°
Maximum altitude 23:49:13 36° 63° (ENE) 1,529 3.7 -34.9°
Drops below altitude 10° 23:54:48 10° 359° (N) 2,774 5.6 -34.7°
Sets 23:57:28 0° 351° (N) 3,724 6.4 -34.6°
